ボリソフ彗星

C/2020 Q1 ( Borisov )

English version
Home page
Updated on July 2, 2021

---------------------------------------------------------------------

・ プロフィール

発見日 2020年8月17日
発見光度 17.8等
発見者 Gennady Borisov (MARGO observatory near Nauchnij, Crimea)

・ 写真集

・ 軌道要素

Epoch 2020 Aug. 19.0 TT = JDT 2459080.5
T 2020 Aug. 14.68445 TT                                 Rudenko
q   1.3151214            (2000.0)            P               Q
z  +0.0162023      Peri.    9.90936     +0.71000601     +0.51752933
 +/-0.0002035      Node    52.38504     +0.59776808     -0.80141364
e   0.9786919      Incl.  142.92434     +0.37224292     +0.29983258
From 276 observations 2020 Aug. 17-Oct. 25, mean residual 1".0.

・ 星図

・ 光度変化

        m1 = 8.0 + 5 logΔ + 40 log r(t - 15)

---------------------------------------------------------------------

軌道要素はM.P.E.C. 2020-W26に掲載されたものです。
星図はステラナビゲータ Ver.10 (アストロアーツ) で作成したものです。
光度グラフはComet for Windowsで作成したものです。

---------------------------------------------------------------------

Copyright(C) Seiichi Yoshida (comet@aerith.net). All rights reserved.